Powrót do katalogu

STARLINK-35761

AktywnyŁącznośćVLEO
NORAD 66961·PAYLOAD·🇺🇸 United States

Wystrzelony Dec 8, 2025 z Cape Canaveral Space Force Station

Loading…

Następne Przeloty (najbliższe 24 godziny)

TLE

ŚwieżeSource: CelesTrak SupGP

Epoka: Sep 15, 2026, 03:34 UTC

1 66961C 25288C   26258.14909722 -.00001065  00000+0 -38563-4 0  2580
2 66961  43.0010  33.1089 0001516 264.6469 222.5918 15.27579936    16

Śledź STARLINK-35761 w czasie rzeczywistym z AllMySat

Download on the App Store